SCP
0 0 0 0 -0 -0 -0 -0 0 0 0 0 0 0 0 0 0 0 0 0 -0 -0 -0 -0 -0 -0 -0 -0 0 0 0 0 0 0 0 0 0 0 0 0 0 0 0 0 0 0 0 -0 -0
0 0 0 0 -0 -0 -0 0 0 -0 0 0 0 0 0 0 -0 -0 0 0 -0 -0 -0 -0 -0 -0 -0 -0 0 0 0 0 0 0 0 0 0 0 0 0 0 0 0 -0 -0 -0 -0 0 0
0 0 0 0 -0 -0 -0 0 0 0 0 0 0 0 0 0 -0 0 0 -0 -0 -0 0 0 -0 -0 -0 -0 0 0 0 0 0 0 0 0 0 0 0 0 0 0 -0 -0 -0 -0 -0 -0 -0
0 0 0 -0 -0 -0 0 -0 0 0 0 0 0 0 0 -0 -0 0 -0 -0 -0 -0 0 -0 -0 -0 -0 -0 -0 0 0 0 0 0 0 0 0 0 0 0 0 0 0 0 0 -0 -0 -0 -0
0 0 -0 -0 -0 0 0 0 -0 0 0 0 0 0 0 0 -0 -0 -0 -0 -0 -0 0 -0 -0 -0 -0 -0 -0 -0 0 0 0 0 0 0 0 0 0 0 0 0 0 0 0 -0 -0 -0 -0
0 0 -0 0 0 0 0 0 0 0 0 0 0 0 0 0 -0 0 -0 -0 -0 -0 -0 -0 -0 -0 -0 -0 -0 -0 0 0 0 0 0 0 0 0 0 0 0 -0 0 0 0 -0 -0 -0 -0
0 0 0 0 -0 0 -0 0 0 -0 -0 0 0 0 0 0 0 -0 0 -0 -0 0 -0 -0 -0 -0 -0 -0 -0 -0 -0 -0 0 0 0 -0 0 0 0 0 0 0 -0 -0 -0 -0 -0 -0 -0
0 0 0 0 0 -0 0 0 0 0 0 0 0 0 0 0 -0 0 -0 -0 -0 0 0 0 -0 -0 -0 -0 0 -0 -0 -0 -0 0 0 0 0 0 0 0 0 0 0 0 0 -0 -0 -0 -0
0 0 0 0 0 0 0 0 0 0 0 0 0 0 0 -0 -0 -0 -0 -0 -0 0 0 0 -0 -0 -0 0 0 -0 -0 -0 -0 0 0 0 0 0 0 0 0 0 0 0 0 0 0 -0 -0
0 0 -0 0 0 0 0 0 0 0 0 0 0 0 0 -0 -0 -0 -0 -0 -0 -0 -0 0 -0 -0 -0 0 0 0 0 0 0 0 0 0 0 0 0 0 0 0 0 0 0 0 0 0 -0
-0 0 0 0 -0 -0 -0 -0 -0 0 0 -0 -0 -0 -0 -0 -0 -0 -0 -0 -0 -0 0 0 -0 -0 -0 -0 0 0 0 0 0 0 0 0 0 0 0 0 0 0 0 0 0 0 0 -0 -0
0 0 0 0 -0 0 -0 -0 -0 -0 -0 0 -0 -0 -0 -0 -0 -0 -0 -0 -0 -0 -0 -0 -0 -0 -0 0 0 0 0 0 0 0 0 0 0 0 0 0 0 0 0 0 0 0 0 0 -0
0 0 -0 0 0 0 0 -0 -0 -0 -0 -0 -0 -0 -0 -0 -0 0 -0 -0 -0 -0 -0 -0 -0 -0 -0 -0 -0 0 0 0 0 0 0 0 0 0 0 0 -0 0 -0 0 0 0 0 0 0
-0 -0 -0 -0 0 0 0 0 0 -0 -0 -0 -0 -0 -0 -0 -0 -0 -0 0 -0 -0 -0 -0 -0 -0 -0 -0 -0 -0 0 0 0 0 0 0 0 0 0 0 0 0 0 -0 0 0 0 0 0
0 0 -0 -0 0 0 0 0 0 0 0 -0 -0 -0 -0 -0 -0 -0 -0 -0 -0 -0 -0 -0 -0 -0 -0 -0 -0 -0 -0 0 0 0 0 0 0 0 0 0 0 0 0 -0 -0 0 0 0 0
0 0 0 0 0 0 0 0 -0 -0 -0 -0 -0 -0 -0 -0 -0 -0 -0 -0 -0 -0 -0 -0 -0 -0 -0 -0 -0 -0 -0 -0 -0 0 0 0 0 0 0 0 0 0 0 0 0 0 0 0 0
0 0 0 0 0 0 0 0 0 0 -0 -0 -0 -0 -0 -0 -0 -0 -0 -0 -0 -0 -0 -0 -0 -0 -0 -0 -0 -0 -0 0 0 0 0 0 0 0 0 0 0 0 0 0 0 0 0 0 0
0 0 0 0 0 0 0 0 0 0 -0 -0 -0 -0 -0 -0 -0 -0 -0 -0 0 0 -0 -0 -0 -0 -0 -0 -0 0 0 0 0 0 0 0 0 0 0 0 0 0 0 0 0 0 0 0 0
0 0 0 0 0 0 0 0 0 0 0 -0 -0 -0 -0 -0 -0 -0 -0 -0 -0 -0 -0 -0 -0 -0 -0 -0 -0 0 0 0 0 0 0 0 0 0 0 0 0 0 1 1 1 0 0 0 0
0 0 0 0 0 0 0 0 0 0 0 0 -0 0 0 -0 0 -0 -0 -0 -0 -0 -0 -0 -0 -0 -0 -0 0 0 0 0 0 0 0 0 0 0 0 1 1 1 1 1 1 0 0 0 0
0 0 0 0 0 0 0 0 0 0 0 0 0 0 0 0 0 0 0 -0 -0 -0 -0 -0 -0 -0 -0 0 0 0 0 0 0 0 0 0 0 0 0 1 1 2 2 3 2 0 0 0 0
0 0 0 0 0 0 0 0 0 0 0 0 -0 -0 0 0 0 -0 -0 -0 0 0 -0 -0 -0 -0 0 0 0 0 0 0 0 0 0 0 0 0 0 1 1 3 2 4 2 0 0 0 0
0 0 0 0 0 0 0 0 0 0 1 0 0 0 0 0 0 0 0 0 0 0 0 0 0 0 0 0 0 0 0 0 0 1 1 1 1 1 1 1 2 1 1 2 1 1 0 0 0
0 0 0 0 0 0 0 0 1 1 1 1 0 0 0 0 0 0 0 0 0 0 0 0 0 0 0 0 0 0 1 1 0 1 1 1 1 2 2 1 2 2 3 1 0 1 0 0 0
0 0 0 0 0 0 0 0 1 1 0 0 0 0 0 0 0 0 1 0 0 0 0 0 0 0 0 0 0 0 0 0 1 1 1 2 2 2 1 1 1 1 0 1 0 0 0 0 0
0 0 0 0 0 0 0 0 2 1 0 0 0 0 0 0 0 0 0 0 0 0 0 0 0 -0 -0 0 0 0 1 1 1 1 1 1 0 1 1 1 1 0 0 0 0 0 0 0 0
0 0 0 0 0 0 0 1 0 0 0 0 0 0 0 0 0 0 0 0 0 0 0 0 0 0 0 0 0 1 1 1 0 0 0 0 0 0 -0 0 0 0 0 0 0 0 0 0 0
0 0 0 0 0 0 0 0 0 0 0 0 0 0 0 0 0 0 0 0 0 0 0 0 0 0 0 0 0 0 0 0 0 0 0 0 0 0 0 0 0 0 0 0 0 0 0 0 0
0 0 0 0 0 0 0 0 0 1 0 0 0 0 0 0 0 0 0 0 0 0 0 0 0 0 0 0 0 0 0 0 0 0 0 0 0 0 0 0 0 0 0 0 0 0 0 0 0
0 0 0 0 0 0 0 0 1 1 1 0 0 0 0 0 0 0 0 0 0 0 0 0 0 0 0 0 0 0 0 0 0 0 0 0 0 0 0 0 0 0 0 0 0 0 0 0 0
Wind_Speed_500mb
2 3 6 4 4 1 6 4 5 5 6 3 22 9 7 5 2 5 18 41 47 45 44 42 36 32 30 27 23 18 16 14 12 11 11 12 12 12 14 14 18 15 14 15 18 16 15 13 13
3 3 5 0 2 6 5 1 5 3 9 23 21 11 5 4 3 7 36 43 48 44 44 42 37 35 33 28 22 19 18 16 16 14 12 11 12 12 13 12 18 19 16 13 17 17 16 15 15
6 4 1 2 3 5 4 3 10 23 7 11 10 9 5 5 3 31 36 50 46 44 43 40 37 35 32 27 22 19 18 17 16 14 13 12 14 15 17 15 18 23 20 15 19 19 19 17 14
5 2 4 1 7 2 4 4 16 24 6 6 12 10 6 3 10 31 43 49 46 44 42 38 36 34 31 26 21 19 17 17 17 15 14 13 17 18 19 18 18 21 20 19 19 18 17 16 15
4 2 2 4 2 7 8 4 30 12 11 14 10 7 8 17 17 33 42 45 44 45 42 38 36 34 30 25 21 19 17 18 18 16 14 16 20 19 21 20 20 20 20 20 19 17 18 19 18
2 1 2 4 5 8 7 4 19 6 7 14 12 17 11 15 24 38 39 43 42 44 43 39 37 34 28 24 21 19 18 20 18 14 14 19 21 19 21 20 20 21 20 20 17 16 17 19 17
1 0 4 2 7 7 9 2 10 6 6 9 23 14 8 25 34 41 41 44 41 44 42 38 37 34 29 26 22 20 19 20 18 18 19 20 20 18 20 20 19 19 19 17 17 16 17 17 14
3 2 2 1 4 6 6 6 2 5 5 15 19 9 11 39 40 42 45 45 43 45 42 38 37 35 32 28 23 21 20 21 21 21 21 20 18 17 18 19 17 18 18 16 15 14 17 16 14
5 3 1 1 2 6 9 6 10 11 16 10 16 7 8 48 47 48 50 50 50 50 46 41 38 36 32 29 25 22 21 23 23 21 18 18 18 19 19 19 18 17 16 16 16 15 17 15 8
4 3 6 3 3 6 7 11 13 15 14 15 15 16 13 52 55 54 55 55 56 55 51 44 39 36 34 30 26 24 23 24 25 22 17 16 18 19 19 18 17 15 14 13 14 15 15 12 6
8 6 7 6 18 17 12 13 12 20 17 24 31 33 34 56 57 52 52 54 54 51 50 45 40 37 35 33 29 26 25 26 25 22 20 19 18 17 18 19 17 15 13 9 11 11 10 9 8
8 11 10 8 9 12 17 14 10 31 7 6 10 23 40 59 57 50 51 52 53 52 49 46 42 40 38 35 32 29 27 26 26 24 23 23 20 18 20 21 21 17 16 13 11 10 12 12 10
10 9 15 18 22 22 17 27 18 16 11 16 10 27 39 55 53 47 45 45 46 48 49 49 46 43 40 37 36 33 30 29 28 28 23 25 23 19 21 24 22 21 21 22 20 20 18 20 18
9 10 11 13 18 13 10 7 10 8 19 20 17 26 38 57 53 52 54 51 48 41 44 47 47 45 43 39 38 35 33 29 32 32 29 24 24 25 25 23 24 21 24 22 23 24 20 23 23
4 9 8 13 5 7 4 9 10 5 22 26 23 28 35 56 50 57 55 54 48 43 42 40 39 46 45 41 40 40 37 34 34 34 32 28 28 27 25 27 27 25 26 27 23 24 25 22 23
5 3 10 4 3 7 7 8 3 13 27 26 29 31 38 51 54 52 55 53 51 49 48 42 43 42 44 44 41 40 41 40 35 36 36 35 33 32 30 30 29 26 29 31 31 26 24 27 28
2 11 11 8 3 7 9 6 8 8 24 31 35 35 38 45 56 55 56 55 54 52 49 48 49 47 43 45 46 45 46 48 42 41 41 39 38 36 38 37 30 30 33 34 35 36 36 30 28
10 9 6 7 6 4 6 18 18 12 26 38 38 39 38 43 54 52 55 58 57 54 54 54 57 56 53 54 54 53 52 54 51 48 48 45 44 43 42 43 40 34 36 37 36 39 35 37 32
7 4 4 6 1 7 6 11 20 16 25 35 32 33 41 52 31 42 48 51 56 65 67 64 64 62 65 66 65 66 64 59 59 55 51 51 48 50 50 49 46 45 45 39 43 47 45 36 49
8 7 11 8 11 5 5 16 10 14 17 21 25 28 34 39 28 28 37 49 56 57 60 67 69 67 69 72 74 73 72 68 65 61 59 57 56 54 55 55 50 51 52 53 55 53 53 41 46
8 17 13 9 6 7 10 6 7 12 23 28 24 19 24 36 43 38 45 48 51 57 64 66 66 66 68 71 76 80 84 81 76 73 69 65 62 59 60 59 58 56 57 62 64 63 53 45 45
15 21 21 17 7 10 5 20 7 19 8 31 37 35 33 33 34 35 37 48 52 54 56 61 68 72 69 71 76 80 87 89 81 77 74 70 65 61 59 61 64 67 66 69 71 68 68 63 57
11 6 23 16 13 5 9 8 14 17 18 40 43 43 39 33 22 13 18 26 38 45 47 48 55 68 74 80 76 80 83 87 86 82 79 72 63 61 58 59 63 63 65 77 78 72 79 62 53
22 8 8 5 6 12 7 6 13 14 20 25 36 43 42 39 31 23 11 9 19 28 33 37 40 41 46 56 66 76 79 79 84 80 78 75 73 63 61 56 54 54 56 71 79 71 74 72 56
15 12 9 12 10 4 6 8 8 8 11 16 26 35 37 35 38 39 37 29 19 14 14 18 26 30 31 31 35 44 55 62 66 67 60 58 66 67 59 55 50 49 70 67 80 67 82 52 37
19 16 9 11 12 10 5 9 8 3 9 20 21 27 29 35 37 44 44 41 40 33 24 15 8 3 10 16 19 26 34 41 43 43 46 44 36 36 35 37 50 55 38 50 62 67 33 28 30
13 14 4 12 5 7 7 7 6 5 9 20 25 28 33 34 39 41 43 43 44 41 36 35 28 21 19 14 10 6 11 20 27 32 30 16 16 29 48 47 34 29 30 34 41 30 27 20 12
9 20 9 1 13 7 8 9 10 7 7 13 24 31 31 33 34 35 42 47 44 42 37 33 32 32 31 25 19 11 4 7 12 13 14 22 22 28 24 18 15 14 15 21 14 5 6 3 5
9 9 10 9 4 10 12 8 9 6 5 11 19 24 28 30 30 34 41 44 41 41 41 38 35 31 30 23 17 12 13 16 16 7 15 15 18 14 14 11 13 17 21 30 34 40 40 38 35
3 11 10 11 9 5 2 9 9 8 6 8 14 19 22 24 25 29 32 39 39 45 41 40 35 31 29 21 10 7 7 15 25 19 5 3 11 17 27 29 32 37 35 28 33 30 28 19 19
Wind_Direction_500mb
153 30 23 56 196 88 97 31 323 81 106 137 157 184 188 85 201 353 151 159 162 158 158 158 155 154 150 148 141 130 120 117 109 90 77 72 73 86 111 122 149 151 148 164 161 161 157 146 131
156 72 50 25 32 49 66 238 149 222 109 124 131 112 133 106 138 131 144 155 160 156 159 155 155 154 151 150 142 132 129 126 119 112 102 94 94 103 111 122 145 145 148 144 152 148 142 139 130
139 70 309 32 90 29 341 343 118 121 140 144 123 71 47 40 217 153 155 156 159 158 158 156 156 153 154 150 139 135 134 129 121 116 106 106 112 115 111 120 140 152 142 145 141 137 138 137 126
126 60 67 293 96 118 259 24 151 133 90 90 113 88 64 288 154 154 155 157 158 159 160 158 155 156 155 150 144 139 134 127 119 114 110 117 120 119 112 115 128 148 155 146 141 138 136 128 111
115 7 77 111 26 288 261 309 172 160 130 133 127 113 81 111 138 156 160 159 162 164 163 159 159 160 159 155 150 143 137 128 119 108 107 119 118 124 120 118 126 135 143 144 140 137 138 130 120
138 194 130 62 320 290 304 238 182 171 134 138 108 129 130 156 157 160 163 166 168 170 167 164 163 164 163 162 160 144 140 130 114 101 113 124 123 119 122 125 126 133 142 146 141 140 135 128 129
122 335 62 343 337 307 356 118 202 160 162 160 139 136 155 171 169 168 168 172 174 178 172 168 169 169 170 170 166 147 145 135 112 110 113 117 126 125 116 126 129 134 139 148 147 149 143 134 118
103 41 119 238 3 32 14 109 187 202 207 147 159 158 173 184 177 176 171 177 181 183 178 174 177 176 176 177 168 154 153 142 129 121 113 114 119 129 123 115 124 137 146 154 151 152 151 141 126
108 105 55 153 102 49 156 178 174 193 162 183 178 165 216 182 177 177 177 183 186 187 183 180 183 182 182 184 174 166 164 159 149 139 127 116 117 124 125 123 125 134 142 151 150 147 150 148 136
153 191 189 210 207 311 274 248 190 209 189 184 170 197 184 179 180 183 186 189 190 189 187 184 186 188 190 190 185 179 177 177 171 163 150 137 131 130 130 130 130 132 139 146 145 151 156 161 182
157 203 192 234 244 285 296 274 216 218 226 216 201 186 180 181 184 191 196 196 193 190 191 188 189 194 197 197 194 193 193 189 187 185 171 168 155 153 151 149 145 144 146 148 152 162 181 211 230
205 214 205 278 253 280 285 293 254 213 263 202 215 207 184 187 191 194 196 193 195 195 194 194 195 200 203 202 203 203 205 203 200 196 196 189 182 183 183 182 187 190 189 204 213 220 231 235 252
218 213 211 251 280 273 274 261 260 235 213 235 196 188 192 192 195 194 189 188 194 200 200 199 202 204 206 208 209 210 212 215 210 205 202 205 204 198 204 213 214 211 214 217 228 247 261 251 256
196 224 268 279 264 267 259 307 181 87 188 189 189 191 193 196 198 194 194 196 196 194 197 203 208 209 211 214 216 217 218 220 217 218 213 213 216 218 218 220 224 230 232 231 233 239 246 259 246
190 255 255 228 270 280 240 230 233 182 177 179 186 193 198 201 203 204 200 200 195 196 202 203 206 213 216 219 222 224 223 224 224 225 223 223 222 219 225 232 241 248 246 238 242 245 251 248 253
213 233 254 111 262 196 233 224 340 205 186 184 187 198 201 208 210 213 210 207 206 210 213 212 216 217 219 222 224 228 228 230 231 228 228 231 231 227 234 242 247 253 251 251 250 253 255 249 253
49 239 218 200 65 175 249 259 29 218 217 208 200 202 207 213 217 218 218 215 216 219 226 228 229 230 231 231 232 232 231 232 235 234 234 237 239 240 242 247 253 259 260 263 258 254 256 254 254
202 208 218 204 130 59 230 270 296 258 229 237 220 208 213 218 223 221 223 225 226 231 237 240 242 243 241 241 241 240 239 236 238 240 242 243 244 245 248 253 255 253 259 261 262 255 261 258 265
168 193 249 283 271 303 185 274 294 320 246 251 253 233 224 233 231 237 233 234 241 244 246 247 248 247 248 246 245 244 245 244 243 244 247 247 249 250 251 254 256 252 252 256 256 252 258 264 265
173 220 242 262 293 261 227 289 35 17 319 296 279 266 263 269 265 250 249 250 247 247 250 251 254 255 255 253 252 253 254 252 252 253 255 254 253 252 252 252 256 257 254 253 254 251 251 265 255
196 228 222 245 291 250 270 212 48 9 41 42 26 346 293 280 275 266 265 264 263 260 260 257 259 259 260 258 256 255 254 253 255 255 257 256 256 257 254 255 257 259 255 254 257 261 249 260 276
238 212 227 228 236 249 320 258 41 354 33 21 13 4 349 318 289 278 271 272 270 276 277 270 264 260 259 258 254 255 256 257 261 260 261 260 259 257 254 256 257 261 262 257 258 266 263 254 272
224 178 214 213 218 247 168 240 2 359 359 7 15 17 11 8 10 319 291 274 265 263 269 272 270 266 261 259 261 261 257 257 259 260 260 264 259 254 255 254 256 260 271 275 270 267 268 266 269
147 116 93 108 174 215 100 245 41 9 342 358 12 21 19 20 27 31 17 295 278 280 278 271 267 269 268 265 264 264 264 260 257 258 261 260 261 260 256 254 257 257 267 273 274 274 272 267 258
193 173 160 189 188 161 38 130 42 7 9 355 359 10 18 29 37 44 48 47 39 12 343 307 286 280 272 272 271 270 268 265 262 261 265 271 269 268 269 269 273 280 281 263 267 277 293 255 273
183 200 195 177 190 140 108 130 99 356 340 354 20 29 32 42 45 47 49 46 52 51 41 26 359 298 251 254 269 271 266 266 265 264 271 279 290 271 251 262 286 300 282 280 275 266 269 299 302
157 201 79 107 69 140 103 107 218 260 348 23 42 53 49 41 40 44 46 47 51 54 56 56 65 79 76 60 37 335 283 269 272 269 276 283 259 275 298 302 307 293 262 273 288 286 294 300 270
224 140 158 111 165 146 140 168 136 165 8 32 49 51 44 43 44 43 46 48 50 49 55 59 62 69 67 65 67 71 109 217 236 231 260 282 303 314 324 340 333 332 324 301 284 50 44 327 108
149 168 69 100 3 198 158 176 150 163 15 33 39 39 42 42 39 44 48 48 54 59 56 59 58 62 55 55 66 98 147 181 188 241 300 295 318 6 6 7 84 75 83 82 85 78 79 77 74
30 162 158 201 176 68 321 127 141 136 90 52 51 51 48 46 45 41 42 46 59 66 62 63 63 64 66 64 85 122 194 238 264 283 291 81 43 70 90 84 88 90 89 86 82 83 79 75 72
Wind_Speed_850mb
2 3 6 4 4 1 6 4 5 5 6 3 22 9 7 5 2 5 18 41 47 45 44 42 36 32 30 27 23 18 16 14 12 11 11 12 12 12 14 14 18 15 14 15 18 16 15 13 13
3 3 5 0 2 6 5 1 5 3 9 23 21 11 5 4 3 7 36 43 48 44 44 42 37 35 33 28 22 19 18 16 16 14 12 11 12 12 13 12 18 19 16 13 17 17 16 15 15
6 4 1 2 3 5 4 3 10 23 7 11 10 9 5 5 3 31 36 50 46 44 43 40 37 35 32 27 22 19 18 17 16 14 13 12 14 15 17 15 18 23 20 15 19 19 19 17 14
5 2 4 1 7 2 4 4 16 24 6 6 12 10 6 3 10 31 43 49 46 44 42 38 36 34 31 26 21 19 17 17 17 15 14 13 17 18 19 18 18 21 20 19 19 18 17 16 15
4 2 2 4 2 7 8 4 30 12 11 14 10 7 8 17 17 33 42 45 44 45 42 38 36 34 30 25 21 19 17 18 18 16 14 16 20 19 21 20 20 20 20 20 19 17 18 19 18
2 1 2 4 5 8 7 4 19 6 7 14 12 17 11 15 24 38 39 43 42 44 43 39 37 34 28 24 21 19 18 20 18 14 14 19 21 19 21 20 20 21 20 20 17 16 17 19 17
1 0 4 2 7 7 9 2 10 6 6 9 23 14 8 25 34 41 41 44 41 44 42 38 37 34 29 26 22 20 19 20 18 18 19 20 20 18 20 20 19 19 19 17 17 16 17 17 14
3 2 2 1 4 6 6 6 2 5 5 15 19 9 11 39 40 42 45 45 43 45 42 38 37 35 32 28 23 21 20 21 21 21 21 20 18 17 18 19 17 18 18 16 15 14 17 16 14
5 3 1 1 2 6 9 6 10 11 16 10 16 7 8 48 47 48 50 50 50 50 46 41 38 36 32 29 25 22 21 23 23 21 18 18 18 19 19 19 18 17 16 16 16 15 17 15 8
4 3 6 3 3 6 7 11 13 15 14 15 15 16 13 52 55 54 55 55 56 55 51 44 39 36 34 30 26 24 23 24 25 22 17 16 18 19 19 18 17 15 14 13 14 15 15 12 6
8 6 7 6 18 17 12 13 12 20 17 24 31 33 34 56 57 52 52 54 54 51 50 45 40 37 35 33 29 26 25 26 25 22 20 19 18 17 18 19 17 15 13 9 11 11 10 9 8
8 11 10 8 9 12 17 14 10 31 7 6 10 23 40 59 57 50 51 52 53 52 49 46 42 40 38 35 32 29 27 26 26 24 23 23 20 18 20 21 21 17 16 13 11 10 12 12 10
10 9 15 18 22 22 17 27 18 16 11 16 10 27 39 55 53 47 45 45 46 48 49 49 46 43 40 37 36 33 30 29 28 28 23 25 23 19 21 24 22 21 21 22 20 20 18 20 18
9 10 11 13 18 13 10 7 10 8 19 20 17 26 38 57 53 52 54 51 48 41 44 47 47 45 43 39 38 35 33 29 32 32 29 24 24 25 25 23 24 21 24 22 23 24 20 23 23
4 9 8 13 5 7 4 9 10 5 22 26 23 28 35 56 50 57 55 54 48 43 42 40 39 46 45 41 40 40 37 34 34 34 32 28 28 27 25 27 27 25 26 27 23 24 25 22 23
5 3 10 4 3 7 7 8 3 13 27 26 29 31 38 51 54 52 55 53 51 49 48 42 43 42 44 44 41 40 41 40 35 36 36 35 33 32 30 30 29 26 29 31 31 26 24 27 28
2 11 11 8 3 7 9 6 8 8 24 31 35 35 38 45 56 55 56 55 54 52 49 48 49 47 43 45 46 45 46 48 42 41 41 39 38 36 38 37 30 30 33 34 35 36 36 30 28
10 9 6 7 6 4 6 18 18 12 26 38 38 39 38 43 54 52 55 58 57 54 54 54 57 56 53 54 54 53 52 54 51 48 48 45 44 43 42 43 40 34 36 37 36 39 35 37 32
7 4 4 6 1 7 6 11 20 16 25 35 32 33 41 52 31 42 48 51 56 65 67 64 64 62 65 66 65 66 64 59 59 55 51 51 48 50 50 49 46 45 45 39 43 47 45 36 49
8 7 11 8 11 5 5 16 10 14 17 21 25 28 34 39 28 28 37 49 56 57 60 67 69 67 69 72 74 73 72 68 65 61 59 57 56 54 55 55 50 51 52 53 55 53 53 41 46
8 17 13 9 6 7 10 6 7 12 23 28 24 19 24 36 43 38 45 48 51 57 64 66 66 66 68 71 76 80 84 81 76 73 69 65 62 59 60 59 58 56 57 62 64 63 53 45 45
15 21 21 17 7 10 5 20 7 19 8 31 37 35 33 33 34 35 37 48 52 54 56 61 68 72 69 71 76 80 87 89 81 77 74 70 65 61 59 61 64 67 66 69 71 68 68 63 57
11 6 23 16 13 5 9 8 14 17 18 40 43 43 39 33 22 13 18 26 38 45 47 48 55 68 74 80 76 80 83 87 86 82 79 72 63 61 58 59 63 63 65 77 78 72 79 62 53
22 8 8 5 6 12 7 6 13 14 20 25 36 43 42 39 31 23 11 9 19 28 33 37 40 41 46 56 66 76 79 79 84 80 78 75 73 63 61 56 54 54 56 71 79 71 74 72 56
15 12 9 12 10 4 6 8 8 8 11 16 26 35 37 35 38 39 37 29 19 14 14 18 26 30 31 31 35 44 55 62 66 67 60 58 66 67 59 55 50 49 70 67 80 67 82 52 37
19 16 9 11 12 10 5 9 8 3 9 20 21 27 29 35 37 44 44 41 40 33 24 15 8 3 10 16 19 26 34 41 43 43 46 44 36 36 35 37 50 55 38 50 62 67 33 28 30
13 14 4 12 5 7 7 7 6 5 9 20 25 28 33 34 39 41 43 43 44 41 36 35 28 21 19 14 10 6 11 20 27 32 30 16 16 29 48 47 34 29 30 34 41 30 27 20 12
9 20 9 1 13 7 8 9 10 7 7 13 24 31 31 33 34 35 42 47 44 42 37 33 32 32 31 25 19 11 4 7 12 13 14 22 22 28 24 18 15 14 15 21 14 5 6 3 5
9 9 10 9 4 10 12 8 9 6 5 11 19 24 28 30 30 34 41 44 41 41 41 38 35 31 30 23 17 12 13 16 16 7 15 15 18 14 14 11 13 17 21 30 34 40 40 38 35
3 11 10 11 9 5 2 9 9 8 6 8 14 19 22 24 25 29 32 39 39 45 41 40 35 31 29 21 10 7 7 15 25 19 5 3 11 17 27 29 32 37 35 28 33 30 28 19 19
Wind_Direction_850mb
153 30 23 56 196 88 97 31 323 81 106 137 157 184 188 85 201 353 151 159 162 158 158 158 155 154 150 148 141 130 120 117 109 90 77 72 73 86 111 122 149 151 148 164 161 161 157 146 131
156 72 50 25 32 49 66 238 149 222 109 124 131 112 133 106 138 131 144 155 160 156 159 155 155 154 151 150 142 132 129 126 119 112 102 94 94 103 111 122 145 145 148 144 152 148 142 139 130
139 70 309 32 90 29 341 343 118 121 140 144 123 71 47 40 217 153 155 156 159 158 158 156 156 153 154 150 139 135 134 129 121 116 106 106 112 115 111 120 140 152 142 145 141 137 138 137 126
126 60 67 293 96 118 259 24 151 133 90 90 113 88 64 288 154 154 155 157 158 159 160 158 155 156 155 150 144 139 134 127 119 114 110 117 120 119 112 115 128 148 155 146 141 138 136 128 111
115 7 77 111 26 288 261 309 172 160 130 133 127 113 81 111 138 156 160 159 162 164 163 159 159 160 159 155 150 143 137 128 119 108 107 119 118 124 120 118 126 135 143 144 140 137 138 130 120
138 194 130 62 320 290 304 238 182 171 134 138 108 129 130 156 157 160 163 166 168 170 167 164 163 164 163 162 160 144 140 130 114 101 113 124 123 119 122 125 126 133 142 146 141 140 135 128 129
122 335 62 343 337 307 356 118 202 160 162 160 139 136 155 171 169 168 168 172 174 178 172 168 169 169 170 170 166 147 145 135 112 110 113 117 126 125 116 126 129 134 139 148 147 149 143 134 118
103 41 119 238 3 32 14 109 187 202 207 147 159 158 173 184 177 176 171 177 181 183 178 174 177 176 176 177 168 154 153 142 129 121 113 114 119 129 123 115 124 137 146 154 151 152 151 141 126
108 105 55 153 102 49 156 178 174 193 162 183 178 165 216 182 177 177 177 183 186 187 183 180 183 182 182 184 174 166 164 159 149 139 127 116 117 124 125 123 125 134 142 151 150 147 150 148 136
153 191 189 210 207 311 274 248 190 209 189 184 170 197 184 179 180 183 186 189 190 189 187 184 186 188 190 190 185 179 177 177 171 163 150 137 131 130 130 130 130 132 139 146 145 151 156 161 182
157 203 192 234 244 285 296 274 216 218 226 216 201 186 180 181 184 191 196 196 193 190 191 188 189 194 197 197 194 193 193 189 187 185 171 168 155 153 151 149 145 144 146 148 152 162 181 211 230
205 214 205 278 253 280 285 293 254 213 263 202 215 207 184 187 191 194 196 193 195 195 194 194 195 200 203 202 203 203 205 203 200 196 196 189 182 183 183 182 187 190 189 204 213 220 231 235 252
218 213 211 251 280 273 274 261 260 235 213 235 196 188 192 192 195 194 189 188 194 200 200 199 202 204 206 208 209 210 212 215 210 205 202 205 204 198 204 213 214 211 214 217 228 247 261 251 256
196 224 268 279 264 267 259 307 181 87 188 189 189 191 193 196 198 194 194 196 196 194 197 203 208 209 211 214 216 217 218 220 217 218 213 213 216 218 218 220 224 230 232 231 233 239 246 259 246
190 255 255 228 270 280 240 230 233 182 177 179 186 193 198 201 203 204 200 200 195 196 202 203 206 213 216 219 222 224 223 224 224 225 223 223 222 219 225 232 241 248 246 238 242 245 251 248 253
213 233 254 111 262 196 233 224 340 205 186 184 187 198 201 208 210 213 210 207 206 210 213 212 216 217 219 222 224 228 228 230 231 228 228 231 231 227 234 242 247 253 251 251 250 253 255 249 253
49 239 218 200 65 175 249 259 29 218 217 208 200 202 207 213 217 218 218 215 216 219 226 228 229 230 231 231 232 232 231 232 235 234 234 237 239 240 242 247 253 259 260 263 258 254 256 254 254
202 208 218 204 130 59 230 270 296 258 229 237 220 208 213 218 223 221 223 225 226 231 237 240 242 243 241 241 241 240 239 236 238 240 242 243 244 245 248 253 255 253 259 261 262 255 261 258 265
168 193 249 283 271 303 185 274 294 320 246 251 253 233 224 233 231 237 233 234 241 244 246 247 248 247 248 246 245 244 245 244 243 244 247 247 249 250 251 254 256 252 252 256 256 252 258 264 265
173 220 242 262 293 261 227 289 35 17 319 296 279 266 263 269 265 250 249 250 247 247 250 251 254 255 255 253 252 253 254 252 252 253 255 254 253 252 252 252 256 257 254 253 254 251 251 265 255
196 228 222 245 291 250 270 212 48 9 41 42 26 346 293 280 275 266 265 264 263 260 260 257 259 259 260 258 256 255 254 253 255 255 257 256 256 257 254 255 257 259 255 254 257 261 249 260 276
238 212 227 228 236 249 320 258 41 354 33 21 13 4 349 318 289 278 271 272 270 276 277 270 264 260 259 258 254 255 256 257 261 260 261 260 259 257 254 256 257 261 262 257 258 266 263 254 272
224 178 214 213 218 247 168 240 2 359 359 7 15 17 11 8 10 319 291 274 265 263 269 272 270 266 261 259 261 261 257 257 259 260 260 264 259 254 255 254 256 260 271 275 270 267 268 266 269
147 116 93 108 174 215 100 245 41 9 342 358 12 21 19 20 27 31 17 295 278 280 278 271 267 269 268 265 264 264 264 260 257 258 261 260 261 260 256 254 257 257 267 273 274 274 272 267 258
193 173 160 189 188 161 38 130 42 7 9 355 359 10 18 29 37 44 48 47 39 12 343 307 286 280 272 272 271 270 268 265 262 261 265 271 269 268 269 269 273 280 281 263 267 277 293 255 273
183 200 195 177 190 140 108 130 99 356 340 354 20 29 32 42 45 47 49 46 52 51 41 26 359 298 251 254 269 271 266 266 265 264 271 279 290 271 251 262 286 300 282 280 275 266 269 299 302
157 201 79 107 69 140 103 107 218 260 348 23 42 53 49 41 40 44 46 47 51 54 56 56 65 79 76 60 37 335 283 269 272 269 276 283 259 275 298 302 307 293 262 273 288 286 294 300 270
224 140 158 111 165 146 140 168 136 165 8 32 49 51 44 43 44 43 46 48 50 49 55 59 62 69 67 65 67 71 109 217 236 231 260 282 303 314 324 340 333 332 324 301 284 50 44 327 108
149 168 69 100 3 198 158 176 150 163 15 33 39 39 42 42 39 44 48 48 54 59 56 59 58 62 55 55 66 98 147 181 188 241 300 295 318 6 6 7 84 75 83 82 85 78 79 77 74
30 162 158 201 176 68 321 127 141 136 90 52 51 51 48 46 45 41 42 46 59 66 62 63 63 64 66 64 85 122 194 238 264 283 291 81 43 70 90 84 88 90 89 86 82 83 79 75 72